Henderson, KY

11:12 PM CST on December 14, 2019 (GMT -0600)
Henderson City-County

Weather History for KEHR - October, 2019

Change the Weather History Date:

Saturday, October 5, 2019

  Actual Average Record
Temperature  
Mean Temperature 70 °F -  
Max Temperature 86 °F 75 °F 92 °F (1951)
Min Temperature 54 °F 50 °F 31 °F (1980)
Cooling Degree Days 5    
Growing Degree Days 20 (Base 50)    
Moisture  
Dew Point 48 °F    
Average Humidity 55    
Maximum Humidity 80    
Minimum Humidity 20    
Precipitation  
Precipitation 0.00 in - - ()
Sea Level Pressure  
Sea Level Pressure 30.04 in    
Wind  
Wind Speed 6 mph (East)    
Max Wind Speed 9 mph    
Max Gust Speed -    
Visibility 10 miles    
Events Rain , Thunderstorm    
Averages and records for this station are not official NWS values.
T = Trace of Precipitation, MM = Missing Value Source: NWS Daily Summary

Daily Weather History Graph

Daily Weather History Graph

Search for Another Location

Airport or City:

Astronomy

Oct. 05, 2019 Rise Set
Actual Time 6:49 AM CDT 6:28 PM CDT
Civil Twilight 6:23 AM CDT 6:54 PM CDT
Nautical Twilight 5:53 AM CDT 7:24 PM CDT
Astronomical Twilight 5:22 AM CDT 7:55 PM CDT
Moon 2:09 PM CDT (10/5) 11:56 PM CDT (10/5)
Length of Visible Light 12h 30m
Length of Day
11h 38m
Waxing Crescent, 50% of the Moon is Illuminated
Oct 5
Waxing Crescent
Oct 13
Full
Oct 21
Last Quarter
Oct 27
New
Nov 4
First Quarter

Hourly Weather History & Observations

Time (CDT) Temp. Dew Point Humidity Pressure Visibility Wind Dir Wind Speed Gust Speed Precip Events Conditions
12:56 AM 59.0 °F 46.9 °F 64% 30.17 in 10.0 mi NE 6.9 mph - N/A   Clear
1:56 AM 59.0 °F 46.9 °F 64% 30.15 in 10.0 mi ENE 8.1 mph - N/A   Clear
2:56 AM 57.9 °F 46.9 °F 67% 30.13 in 10.0 mi ENE 6.9 mph - N/A   Clear
3:56 AM 57.0 °F 48.0 °F 72% 30.13 in 10.0 mi ENE 9.2 mph - N/A   Clear
4:56 AM 55.9 °F 48.0 °F 75% 30.12 in 10.0 mi NE 5.8 mph - N/A   Clear
5:56 AM 55.0 °F 48.0 °F 77% 30.12 in 10.0 mi NE 9.2 mph - N/A   Clear
6:56 AM 54.0 °F 48.0 °F 80% 30.13 in 10.0 mi NNE 6.9 mph - N/A   Clear
7:56 AM 57.9 °F 48.9 °F 72% 30.13 in 10.0 mi ENE 6.9 mph - N/A   Clear
8:56 AM 61.0 °F 48.9 °F 64% 30.12 in 10.0 mi Variable 6.9 mph - N/A   Clear
9:56 AM 64.0 °F 48.9 °F 58% 30.10 in 10.0 mi ESE 8.1 mph - N/A   Clear
10:56 AM 69.1 °F 50.0 °F 51% 30.08 in 10.0 mi Calm Calm - N/A   Clear
11:56 AM 73.0 °F 50.0 °F 44% 30.05 in 10.0 mi Variable 4.6 mph - N/A   Clear
12:56 PM 78.1 °F 48.0 °F 35% 30.02 in 10.0 mi Variable 5.8 mph - N/A   Clear
1:56 PM 80.1 °F 46.0 °F 30% 30.00 in 10.0 mi Variable 3.5 mph - N/A   Clear
2:56 PM 84.0 °F 43.0 °F 24% 29.97 in 10.0 mi Variable 6.9 mph - N/A   Clear
4:56 PM 86.0 °F 39.9 °F 20% 29.96 in 10.0 mi South 4.6 mph - N/A   Clear
5:56 PM 79.0 °F 45.0 °F 30% 29.96 in 10.0 mi Calm Calm - N/A   Clear
6:56 PM 69.1 °F 46.0 °F 44% 29.97 in 10.0 mi Calm Calm - N/A   Clear
7:56 PM 66.9 °F 48.0 °F 51% 29.97 in 10.0 mi Calm Calm - N/A   Partly Cloudy
8:56 PM 66.9 °F 51.1 °F 57% 29.96 in 10.0 mi ESE 3.5 mph - N/A   Clear
9:56 PM 66.9 °F 55.0 °F 66% 29.96 in 10.0 mi SSE 6.9 mph - 0.00 in Rain , Thunderstorm Light Thunderstorms and Rain
10:34 PM 66.2 °F 55.4 °F 68% 29.97 in 8.0 mi SSE 3.5 mph - 0.00 in Rain Light Rain
10:56 PM 68.0 °F 53.1 °F 59% 29.94 in 10.0 mi SSE 9.2 mph - 0.00 in   Partly Cloudy
11:56 PM 66.9 °F 52.0 °F 59% 29.96 in 10.0 mi NNW 4.6 mph - N/A   Clear